Meteo Giornale » Osservazioni meteo Stati Uniti (USA) » Agana Guam
ore: 15:54 - Osservazioni Meteo Agana Guam
Lat. 13° 21' N Lon. 144° 48' E Alt. 91 metri s.l.m.
28 °C
Nuvoloso
Temp. 24 Ore
26 °C
29 °C
Nord
5.5 Km/h
Dew point 24 °C
Umidità 78 %
Visibilità 10 Km
Il sole sorge alle ore 06:09
Il sole tramonta alle ore 18:32
| Data e Ora | Cielo e Fenomeni | T °C | DP °C | Um. % | Pres. hPa | Vis. km | Vento km/h | |
|---|---|---|---|---|---|---|---|---|
| Oggi h: 15:54 | Nuvoloso | 28 | 24 | 78 | 1008 | 10 | N 5.5 | |
| Oggi h: 14:54 | Poco Nuvoloso | 28 | 25 | 83 | 1008 | 10 | N 11.1 | |
| Oggi h: 13:54 | Foschia | 28 | 26 | 88 | 1009 | 10 | N 16.7 | |
| Oggi h: 12:54 | Pioggia Foschia | 29 | 25 | 79 | 1010 | 10 | N 18.5 | |
| Oggi h: 12:03 | Pioggia Foschia | 28 | 26 | 88 | 1011 | 10 | N/NE 13 | |
| Oggi h: 11:54 | Pioggia Foschia | 28 | 25 | 83 | 1011 | 10 | N 18.5 | |
| Oggi h: 11:41 | Molto Nuvoloso | 28 | 25 | 83 | 1011 | 10 | N 22.2 | |
| Oggi h: 10:54 | Poco Nuvoloso | 29 | 26 | 83 | 1011 | 10 | N/NO 18.5 | |
| Oggi h: 09:54 | Poco Nuvoloso | 28 | 26 | 88 | 1011 | 10 | NO 16.7 | |
| Oggi h: 09:21 | Molto Nuvoloso | 29 | 26 | 83 | 1011 | 10 | NO 18.5 | |
| Oggi h: 08:54 | Sereno | 28 | 24 | 78 | 1011 | 10 | N/NO 14.8 | |
| Oggi h: 07:54 | Molto Nuvoloso | 28 | 25 | 83 | 1011 | 10 | NO 16.7 | |
| Oggi h: 06:54 | Pioggia Foschia | 27 | 25 | 88 | 1010 | 8 | N/NO 13 | |
| Oggi h: 06:37 | Pioggia Foschia | 27 | 25 | 88 | 1010 | 6 | NO 20.3 | |
| Oggi h: 06:30 | Pioggia | 27 | 24 | 83 | 1010 | 3 | NO 24 | |
| Oggi h: 05:54 | Molto Nuvoloso | 27 | 24 | 83 | 1010 | 10 | NO 13 | |
| Oggi h: 04:54 | Nuvoloso | 27 | 24 | 83 | 1010 | 10 | NO 18.5 | |
| Oggi h: 03:54 | Coperto | 26 | 23 | 83 | 1009 | 10 | O/NO 14.8 | |
| Oggi h: 02:54 | Pioggia | 26 | 24 | 88 | 1010 | 14 | O/NO 24 | |
| Oggi h: 01:54 | Nuvoloso | 27 | 24 | 83 | 1010 | 10 | O 22.2 | |
| Oggi h: 00:54 | Nuvoloso | 27 | 25 | 88 | 1010 | 10 | O 22.2 | |
| Ieri h: 23:54 | Nuvoloso | 27 | 24 | 83 | 1011 | 10 | O/NO 20.3 | |
| Ieri h: 23:16 | Nuvoloso | 27 | 25 | 88 | 1011 | 10 | O/NO 20.3 | |
| Ieri h: 23:09 | Molto Nuvoloso | 27 | 25 | 88 | 1011 | 10 | O 16.7 | |
| Ieri h: 22:54 | Nuvoloso | 28 | 24 | 78 | 1011 | 10 | O/NO 22.2 | |
| Ieri h: 21:54 | Nuvoloso | 27 | 24 | 83 | 1011 | 10 | NO 18.5 | |
| Ieri h: 20:54 | Poco Nuvoloso | 27 | 24 | 83 | 1011 | 10 | NO 13 | |
| Ieri h: 19:54 | Poco Nuvoloso | 27 | 24 | 83 | 1011 | 10 | O/NO 18.5 | |
| Ieri h: 18:54 | Nuvoloso | 27 | 24 | 83 | 1010 | 10 | NO 16.7 | |
| Ieri h: 18:22 | Nuvoloso | 28 | 24 | 78 | 1010 | 10 | O/NO 16.7 | |
| Ieri h: 18:06 | Nuvoloso | 28 | 25 | 83 | 1010 | 10 | O 16.7 | |
| Ieri h: 17:54 | Nuvoloso | 28 | 25 | 83 | 1010 | 10 | O/NO 18.5 | |
| Ieri h: 16:54 | Nuvoloso | 28 | 24 | 78 | 1009 | 10 | O/NO 22.2 | |



